Location: Bilsen
(53.7722°N, 9.8765°E)
Time: 09:33:16
(UTC+00:00)

Cosmos 921 Rocket - Pass Details

Date: 18 February 2020
Orbit: 572 x 631 km, 75.8° (Epoch: 27 March)

Event Time Altitude Azimuth Distance (km) Brightness Sun altitude
Exits shadow 04:15:12 - 338° (NNW) 2,476 6.0 -21.2°
Reaches altitude 10° 04:16:23 10° 340° (NNW) 2,007 5.6 -21.0°
Maximum altitude 04:20:52 72° 65° (ENE) 654 3.2 -20.4°
Drops below altitude 10° 04:25:14 10° 150° (SSE) 1,959 5.9 -19.7°
Sets 04:27:27 0° 153° (SSE) 2,848 6.7 -19.4°
